{"data":{"norad_id":59299,"epoch":"2026-09-21T04:37:03.282240Z","epoch_age_seconds":102378,"freshness":"FRESH","line1":"1 59299U 24056D   26264.19239910 -.00001070  00000+0 -29365-4 0  9993","line2":"2 59299  42.9993 199.7175 0000616 270.3545  89.7236 15.27573976141250","mean_motion":15.27573976,"eccentricity":6.16e-5,"inclination_deg":42.9993,"raan_deg":199.7175,"arg_perigee_deg":270.3545,"mean_anomaly_deg":89.7236,"bstar":-2.9365e-5,"rev_number":14125,"period_min":94.267120455317,"perigee_km":482.64448394739,"apogee_km":483.48978429671,"semimajor_km":6861.2041341221,"source":"CELESTRAK","updated_at":"2026-09-22T09:00:48.875402Z"}}